owner,sensor,date,latitude,longitude,vertical_datum,direction_of_sea_water_velocity,sea_water_speed,upward_sea_water_velocity,qcFlag 
TABS,ioos:station:wmo:42043:1,1995-09-01T00:00:00Z,28.9818,-94.9186,2.0,60.39454208,84.14541283,-99999.0,'11111222,11111222,99999999' 
TABS,ioos:station:wmo:42043:1,1995-09-01T00:30:00Z,28.9818,-94.9186,2.0,56.9917084,83.68799496,-99999.0,'11111222,11111222,99999999' 
TABS,ioos:station:wmo:42043:1,1995-09-01T01:00:00Z,28.9818,-94.9186,2.0,235.6525196,83.19663274,-99999.0,'11111222,11111222,99999999' 
TABS,ioos:station:wmo:42043:1,1995-09-01T01:30:00Z,28.9818,-94.9186,2.0,176.7681329,84.61455726,-99999.0,'11111222,11111222,99999999' 
TABS,ioos:station:wmo:42043:1,1995-09-01T02:00:00Z,28.9818,-94.9186,2.0,177.6626281,84.10996671,-99999.0,'11111222,11111222,99999999' 
TABS,ioos:station:wmo:42043:1,1995-09-01T02:30:00Z,28.9818,-94.9186,2.0,177.4694828,84.26215521,-99999.0,'11111222,11111222,99999999' 
TABS,ioos:station:wmo:42043:1,1995-09-01T03:00:00Z,28.9818,-94.9186,2.0,177.8741748,84.38806669,-99999.0,'11111222,11111222,99999999' 
TABS,ioos:station:wmo:42043:1,1995-09-01T03:30:00Z,28.9818,-94.9186,2.0,178.6819436,84.35231176,-99999.0,'11111222,11111222,99999999' 
TABS,ioos:station:wmo:42043:1,1995-09-01T04:00:00Z,28.9818,-94.9186,2.0,178.6935567,85.10211513,-99999.0,'11111222,11111222,99999999' 
TABS,ioos:station:wmo:42043:1,1995-09-01T04:30:00Z,28.9818,-94.9186,2.0,178.2995029,85.26754248,-99999.0,'11111222,11111222,99999999' 
TABS,ioos:station:wmo:42043:1,1995-09-01T05:00:00Z,28.9818,-94.9186,2.0,113.8494239,99.86761237,-99999.0,'11111222,11111222,99999999' 
TABS,ioos:station:wmo:42043:1,1995-09-01T05:30:00Z,28.9818,-94.9186,2.0,114.4088276,97.35129891,-99999.0,'11111222,11111222,99999999' 
TABS,ioos:station:wmo:42043:1,1995-09-01T06:00:00Z,28.9818,-94.9186,2.0,125.9583747,97.19029684,-99999.0,'11111222,11111222,99999999' 
TABS,ioos:station:wmo:42043:1,1995-09-01T06:30:00Z,28.9818,-94.9186,2.0,118.7736802,96.89372787,-99999.0,'11111222,11111222,99999999' 
TABS,ioos:station:wmo:42043:1,1995-09-01T07:00:00Z,28.9818,-94.9186,2.0,119.5402451,97.61967937,-99999.0,'11111222,11111222,99999999' 
TABS,ioos:station:wmo:42043:1,1995-09-01T07:30:00Z,28.9818,-94.9186,2.0,121.7124299,95.80386005,-99999.0,'11111222,11111222,99999999' 
TABS,ioos:station:wmo:42043:1,1995-09-01T08:00:00Z,28.9818,-94.9186,2.0,117.5925677,96.5063257,-99999.0,'11111222,11111222,99999999' 
TABS,ioos:station:wmo:42043:1,1995-09-01T08:30:00Z,28.9818,-94.9186,2.0,120.267426,96.95702398,-99999.0,'11111222,11111222,99999999' 
TABS,ioos:station:wmo:42043:1,1995-09-01T09:00:00Z,28.9818,-94.9186,2.0,126.1533439,97.24560299,-99999.0,'11111222,11111222,99999999' 
TABS,ioos:station:wmo:42043:1,1995-09-01T09:30:00Z,28.9818,-94.9186,2.0,117.8376605,96.04492386,-99999.0,'11111222,11111222,99999999' 
TABS,ioos:station:wmo:42043:1,1995-09-01T10:00:00Z,28.9818,-94.9186,2.0,119.9444344,96.12130097,-99999.0,'11111222,11111222,99999999' 
TABS,ioos:station:wmo:42043:1,1995-09-01T10:30:00Z,28.9818,-94.9186,2.0,120.798925,96.61584239,-99999.0,'11111222,11111222,99999999' 
TABS,ioos:station:wmo:42043:1,1995-09-01T11:00:00Z,28.9818,-94.9186,2.0,122.2462604,98.30189266,-99999.0,'11111222,11111222,99999999' 
TABS,ioos:station:wmo:42043:1,1995-09-01T11:30:00Z,28.9818,-94.9186,2.0,122.7214666,98.12106858,-99999.0,'11111222,11111222,99999999' 
TABS,ioos:station:wmo:42043:1,1995-09-01T12:00:00Z,28.9818,-94.9186,2.0,143.4249677,87.01515328,-99999.0,'11111222,11111222,99999999' 
TABS,ioos:station:wmo:42043:1,1995-09-01T12:30:00Z,28.9818,-94.9186,2.0,141.6321802,87.6099338,-99999.0,'11111222,11111222,99999999' 
TABS,ioos:station:wmo:42043:1,1995-09-01T13:00:00Z,28.9818,-94.9186,2.0,135.3596367,101.3586839,-99999.0,'11111222,11111222,99999999' 
TABS,ioos:station:wmo:42043:1,1995-09-01T13:30:00Z,28.9818,-94.9186,2.0,299.6705122,71.33243652,-99999.0,'11111222,11111222,99999999' 
TABS,ioos:station:wmo:42043:1,1995-09-01T14:00:00Z,28.9818,-94.9186,2.0,297.2166767,70.03370117,-99999.0,'11111222,11111222,99999999' 
TABS,ioos:station:wmo:42043:1,1995-09-01T14:30:00Z,28.9818,-94.9186,2.0,230.683554,64.89914098,-99999.0,'11111222,11111222,99999999' 
TABS,ioos:station:wmo:42043:1,1995-09-01T15:00:00Z,28.9818,-94.9186,2.0,333.5168003,47.11400004,-99999.0,'11111222,11111222,99999999' 
TABS,ioos:station:wmo:42043:1,1995-09-01T15:30:00Z,28.9818,-94.9186,2.0,336.1040262,43.02836855,-99999.0,'11111222,11111222,99999999' 
TABS,ioos:station:wmo:42043:1,1995-09-01T16:00:00Z,28.9818,-94.9186,2.0,343.3810653,52.09622251,-99999.0,'11111222,11111222,99999999' 
TABS,ioos:station:wmo:42043:1,1995-09-01T16:30:00Z,28.9818,-94.9186,2.0,336.4855596,53.78655966,-99999.0,'11111222,11111222,99999999' 
TABS,ioos:station:wmo:42043:1,1995-09-01T17:00:00Z,28.9818,-94.9186,2.0,335.8669174,51.7534395,-99999.0,'11111222,11111222,99999999' 
TABS,ioos:station:wmo:42043:1,1995-09-01T17:30:00Z,28.9818,-94.9186,2.0,335.6010345,53.01479416,-99999.0,'11111222,11111222,99999999' 
TABS,ioos:station:wmo:42043:1,1995-09-01T18:00:00Z,28.9818,-94.9186,2.0,334.5967721,88.90644352,-99999.0,'11111222,11111222,99999999' 
TABS,ioos:station:wmo:42043:1,1995-09-01T18:30:00Z,28.9818,-94.9186,2.0,320.5060795,81.28925452,-99999.0,'11111222,11111222,99999999' 
TABS,ioos:station:wmo:42043:1,1995-09-01T19:00:00Z,28.9818,-94.9186,2.0,257.9818699,11.43052055,-99999.0,'11111222,11111222,99999999' 
TABS,ioos:station:wmo:42043:1,1995-09-01T19:30:00Z,28.9818,-94.9186,2.0,256.3119485,11.959653,-99999.0,'11111222,11111222,99999999' 
TABS,ioos:station:wmo:42043:1,1995-09-01T20:00:00Z,28.9818,-94.9186,2.0,264.2291114,13.32753541,-99999.0,'11111222,11111222,99999999' 
TABS,ioos:station:wmo:42043:1,1995-09-01T20:30:00Z,28.9818,-94.9186,2.0,281.472535,18.70367076,-99999.0,'11111222,11111222,99999999' 
TABS,ioos:station:wmo:42043:1,1995-09-01T21:00:00Z,28.9818,-94.9186,2.0,289.7807351,19.79815395,-99999.0,'11111222,11111222,99999999' 
TABS,ioos:station:wmo:42043:1,1995-09-01T21:30:00Z,28.9818,-94.9186,2.0,297.1345533,20.25977542,-99999.0,'11111222,11111222,99999999' 
TABS,ioos:station:wmo:42043:1,1995-09-01T22:00:00Z,28.9818,-94.9186,2.0,300.1392514,19.2990207,-99999.0,'11111222,11111222,99999999' 
TABS,ioos:station:wmo:42043:1,1995-09-01T22:30:00Z,28.9818,-94.9186,2.0,292.2674792,23.98891619,-99999.0,'11111222,11111222,99999999' 
TABS,ioos:station:wmo:42043:1,1995-09-01T23:00:00Z,28.9818,-94.9186,2.0,303.0473535,25.94773593,-99999.0,'11111222,11111222,99999999' 
TABS,ioos:station:wmo:42043:1,1995-09-01T23:30:00Z,28.9818,-94.9186,2.0,301.6727686,30.64399615,-99999.0,'11111222,11111222,99999999' 
TABS,ioos:station:wmo:42043:1,1995-09-02T00:00:00Z,28.9818,-94.9186,2.0,311.9728334,31.8642778,-99999.0,'11111222,11111222,99999999' 
TABS,ioos:station:wmo:42043:1,1995-09-02T00:30:00Z,28.9818,-94.9186,2.0,322.1683301,30.37428188,-99999.0,'11111222,11111222,99999999' 
TABS,ioos:station:wmo:42043:1,1995-09-02T01:00:00Z,28.9818,-94.9186,2.0,324.7638327,29.18786049,-99999.0,'11111222,11111222,99999999' 
TABS,ioos:station:wmo:42043:1,1995-09-02T01:30:00Z,28.9818,-94.9186,2.0,327.9189224,26.37807044,-99999.0,'11111222,11111222,99999999' 
TABS,ioos:station:wmo:42043:1,1995-09-02T02:00:00Z,28.9818,-94.9186,2.0,332.5051111,24.51948001,-99999.0,'11111222,11111222,99999999' 
TABS,ioos:station:wmo:42043:1,1995-09-02T02:30:00Z,28.9818,-94.9186,2.0,320.8143327,28.06092301,-99999.0,'11111222,11111222,99999999' 
TABS,ioos:station:wmo:42043:1,1995-09-02T03:00:00Z,28.9818,-94.9186,2.0,328.4002833,25.01975619,-99999.0,'11111222,11111222,99999999' 
TABS,ioos:station:wmo:42043:1,1995-09-02T03:30:00Z,28.9818,-94.9186,2.0,340.7126563,22.10044343,-99999.0,'11111222,11111222,99999999' 
TABS,ioos:station:wmo:42043:1,1995-09-02T04:00:00Z,28.9818,-94.9186,2.0,349.1860517,20.62630602,-99999.0,'11111222,11111222,99999999' 
TABS,ioos:station:wmo:42043:1,1995-09-02T04:30:00Z,28.9818,-94.9186,2.0,356.3453894,18.66796722,-99999.0,'11111222,11111222,99999999' 
TABS,ioos:station:wmo:42043:1,1995-09-02T05:00:00Z,28.9818,-94.9186,2.0,1.429921434,18.03561477,-99999.0,'11111222,11111222,99999999' 
TABS,ioos:station:wmo:42043:1,1995-09-02T05:30:00Z,28.9818,-94.9186,2.0,11.60691702,17.79385568,-99999.0,'11111222,11111222,99999999' 
TABS,ioos:station:wmo:42043:1,1995-09-02T06:00:00Z,28.9818,-94.9186,2.0,18.10326973,15.83378982,-99999.0,'11111222,11111222,99999999' 
TABS,ioos:station:wmo:42043:1,1995-09-02T06:30:00Z,28.9818,-94.9186,2.0,29.55757366,17.81892533,-99999.0,'11111222,11111222,99999999' 
TABS,ioos:station:wmo:42043:1,1995-09-02T07:00:00Z,28.9818,-94.9186,2.0,37.17330719,17.75824879,-99999.0,'11111222,11111222,99999999' 
TABS,ioos:station:wmo:42043:1,1995-09-02T07:30:00Z,28.9818,-94.9186,2.0,53.13687574,17.13600012,-99999.0,'11111222,11111222,99999999' 
TABS,ioos:station:wmo:42043:1,1995-09-02T08:00:00Z,28.9818,-94.9186,2.0,60.02442882,19.0940619,-99999.0,'11111222,11111222,99999999' 
TABS,ioos:station:wmo:42043:1,1995-09-02T08:30:00Z,28.9818,-94.9186,2.0,64.49768867,21.46099951,-99999.0,'11111222,11111222,99999999' 
TABS,ioos:station:wmo:42043:1,1995-09-02T09:00:00Z,28.9818,-94.9186,2.0,66.03228026,22.00762822,-99999.0,'11111222,11111222,99999999' 
TABS,ioos:station:wmo:42043:1,1995-09-02T09:30:00Z,28.9818,-94.9186,2.0,61.68755022,19.79840903,-99999.0,'11111222,11111222,99999999' 
TABS,ioos:station:wmo:42043:1,1995-09-02T10:00:00Z,28.9818,-94.9186,2.0,69.6617654,19.70870112,-99999.0,'11111222,11111222,99999999' 
TABS,ioos:station:wmo:42043:1,1995-09-02T10:30:00Z,28.9818,-94.9186,2.0,75.95672018,19.65751256,-99999.0,'11111222,11111222,99999999' 
TABS,ioos:station:wmo:42043:1,1995-09-02T11:00:00Z,28.9818,-94.9186,2.0,77.05760672,17.2789612,-99999.0,'11111222,11111222,99999999' 
TABS,ioos:station:wmo:42043:1,1995-09-02T11:30:00Z,28.9818,-94.9186,2.0,90.0,16.54,-99999.0,'11111222,11111222,99999999' 
TABS,ioos:station:wmo:42043:1,1995-09-02T12:00:00Z,28.9818,-94.9186,2.0,108.2310075,13.32908474,-99999.0,'11111222,11111222,99999999' 
TABS,ioos:station:wmo:42043:1,1995-09-02T12:30:00Z,28.9818,-94.9186,2.0,122.8634679,11.53619088,-99999.0,'11111222,11111222,99999999' 
TABS,ioos:station:wmo:42043:1,1995-09-02T13:00:00Z,28.9818,-94.9186,2.0,138.1659118,11.39474001,-99999.0,'11111222,11111222,99999999' 
TABS,ioos:station:wmo:42043:1,1995-09-02T13:30:00Z,28.9818,-94.9186,2.0,158.1191292,18.78310145,-99999.0,'11111222,11111222,99999999' 
TABS,ioos:station:wmo:42043:1,1995-09-02T14:00:00Z,28.9818,-94.9186,2.0,172.9845712,20.71507905,-99999.0,'11111222,11111222,99999999' 
TABS,ioos:station:wmo:42043:1,1995-09-02T14:30:00Z,28.9818,-94.9186,2.0,181.3515597,19.07530865,-99999.0,'11111222,11111222,99999999' 
TABS,ioos:station:wmo:42043:1,1995-09-02T15:00:00Z,28.9818,-94.9186,2.0,192.1237012,20.56877488,-99999.0,'11111222,11111222,99999999' 
TABS,ioos:station:wmo:42043:1,1995-09-02T15:30:00Z,28.9818,-94.9186,2.0,198.3074122,19.92872299,-99999.0,'11111222,11111222,99999999' 
TABS,ioos:station:wmo:42043:1,1995-09-02T16:00:00Z,28.9818,-94.9186,2.0,206.1723488,19.58841494,-99999.0,'11111222,11111222,99999999' 
TABS,ioos:station:wmo:42043:1,1995-09-02T16:30:00Z,28.9818,-94.9186,2.0,212.3260373,20.62682234,-99999.0,'11111222,11111222,99999999' 
TABS,ioos:station:wmo:42043:1,1995-09-02T17:00:00Z,28.9818,-94.9186,2.0,228.1967999,20.79301806,-99999.0,'11111222,11111222,99999999' 
TABS,ioos:station:wmo:42043:1,1995-09-02T17:30:00Z,28.9818,-94.9186,2.0,249.3459173,21.97216648,-99999.0,'11111222,11111222,99999999' 
TABS,ioos:station:wmo:42043:1,1995-09-02T18:00:00Z,28.9818,-94.9186,2.0,246.2899579,20.01977522,-99999.0,'11111222,11111222,99999999' 
TABS,ioos:station:wmo:42043:1,1995-09-02T18:30:00Z,28.9818,-94.9186,2.0,251.1437333,19.36947341,-99999.0,'11111222,11111222,99999999' 
TABS,ioos:station:wmo:42043:1,1995-09-02T19:00:00Z,28.9818,-94.9186,2.0,251.4468505,21.52883183,-99999.0,'11111222,11111222,99999999' 
TABS,ioos:station:wmo:42043:1,1995-09-02T19:30:00Z,28.9818,-94.9186,2.0,256.1769666,29.92667873,-99999.0,'11111222,11111222,99999999' 
TABS,ioos:station:wmo:42043:1,1995-09-02T20:00:00Z,28.9818,-94.9186,2.0,265.7113333,31.82910618,-99999.0,'11111222,11111222,99999999' 
TABS,ioos:station:wmo:42043:1,1995-09-02T20:30:00Z,28.9818,-94.9186,2.0,275.1948377,32.91517583,-99999.0,'11111222,11111222,99999999' 
TABS,ioos:station:wmo:42043:1,1995-09-02T21:00:00Z,28.9818,-94.9186,2.0,285.8652731,28.34987478,-99999.0,'11111222,11111222,99999999' 
TABS,ioos:station:wmo:42043:1,1995-09-02T21:30:00Z,28.9818,-94.9186,2.0,293.611093,38.69963307,-99999.0,'11111222,11111222,99999999' 
TABS,ioos:station:wmo:42043:1,1995-09-02T22:00:00Z,28.9818,-94.9186,2.0,294.9303996,37.46044581,-99999.0,'11111222,11111222,99999999' 
TABS,ioos:station:wmo:42043:1,1995-09-02T22:30:00Z,28.9818,-94.9186,2.0,298.6293496,37.00409842,-99999.0,'11111222,11111222,99999999' 
TABS,ioos:station:wmo:42043:1,1995-09-02T23:00:00Z,28.9818,-94.9186,2.0,303.3783223,38.18890153,-99999.0,'11111222,11111222,99999999' 
TABS,ioos:station:wmo:42043:1,1995-09-02T23:30:00Z,28.9818,-94.9186,2.0,309.3648116,37.5876203,-99999.0,'11111222,11111222,99999999' 
TABS,ioos:station:wmo:42043:1,1995-09-03T00:00:00Z,28.9818,-94.9186,2.0,318.3274531,36.30749234,-99999.0,'11111222,11111222,99999999' 
TABS,ioos:station:wmo:42043:1,1995-09-03T00:30:00Z,28.9818,-94.9186,2.0,322.4659547,35.70040056,-99999.0,'11111222,11111222,99999999' 
TABS,ioos:station:wmo:42043:1,1995-09-03T01:00:00Z,28.9818,-94.9186,2.0,326.9426448,37.69140088,-99999.0,'11111222,11111222,99999999' 
TABS,ioos:station:wmo:42043:1,1995-09-03T01:30:00Z,28.9818,-94.9186,2.0,327.9981031,37.94686417,-99999.0,'11111222,11111222,99999999' 
TABS,ioos:station:wmo:42043:1,1995-09-03T02:00:00Z,28.9818,-94.9186,2.0,330.0170407,35.77812879,-99999.0,'11111222,11111222,99999999' 
TABS,ioos:station:wmo:42043:1,1995-09-03T02:30:00Z,28.9818,-94.9186,2.0,330.0799149,36.44777771,-99999.0,'11111222,11111222,99999999' 
TABS,ioos:station:wmo:42043:1,1995-09-03T03:00:00Z,28.9818,-94.9186,2.0,334.1706386,36.58508576,-99999.0,'11111222,11111222,99999999' 
TABS,ioos:station:wmo:42043:1,1995-09-03T03:30:00Z,28.9818,-94.9186,2.0,338.1613364,34.03239192,-99999.0,'11111222,11111222,99999999' 
TABS,ioos:station:wmo:42043:1,1995-09-03T04:00:00Z,28.9818,-94.9186,2.0,341.5710441,31.56901804,-99999.0,'11111222,11111222,99999999' 
TABS,ioos:station:wmo:42043:1,1995-09-03T04:30:00Z,28.9818,-94.9186,2.0,354.2319466,29.65013322,-99999.0,'11111222,11111222,99999999' 
TABS,ioos:station:wmo:42043:1,1995-09-03T05:00:00Z,28.9818,-94.9186,2.0,1.988976355,29.96805132,-99999.0,'11111222,11111222,99999999' 
TABS,ioos:station:wmo:42043:1,1995-09-03T05:30:00Z,28.9818,-94.9186,2.0,359.1262769,29.503432,-99999.0,'11111222,11144222,99999999' 
TABS,ioos:station:wmo:42043:1,1995-09-03T06:00:00Z,28.9818,-94.9186,2.0,1.318129329,26.08690093,-99999.0,'11111222,11111222,99999999' 
TABS,ioos:station:wmo:42043:1,1995-09-03T06:30:00Z,28.9818,-94.9186,2.0,13.66286565,22.69211537,-99999.0,'11111222,11111222,99999999' 
TABS,ioos:station:wmo:42043:1,1995-09-03T07:00:00Z,28.9818,-94.9186,2.0,18.67036527,22.33535538,-99999.0,'11111222,11111222,99999999' 
TABS,ioos:station:wmo:42043:1,1995-09-03T07:30:00Z,28.9818,-94.9186,2.0,30.34395621,21.23962806,-99999.0,'11111222,11111222,99999999' 
TABS,ioos:station:wmo:42043:1,1995-09-03T08:00:00Z,28.9818,-94.9186,2.0,36.85819128,19.37200041,-99999.0,'11111222,11111222,99999999' 
TABS,ioos:station:wmo:42043:1,1995-09-03T08:30:00Z,28.9818,-94.9186,2.0,47.30606656,21.08885962,-99999.0,'11111222,11111222,99999999' 
TABS,ioos:station:wmo:42043:1,1995-09-03T09:00:00Z,28.9818,-94.9186,2.0,60.87320108,25.4137148,-99999.0,'11111222,11111222,99999999' 
TABS,ioos:station:wmo:42043:1,1995-09-03T09:30:00Z,28.9818,-94.9186,2.0,65.50983127,27.6693567,-99999.0,'11111222,11111222,99999999' 
TABS,ioos:station:wmo:42043:1,1995-09-03T10:00:00Z,28.9818,-94.9186,2.0,71.17261893,27.23733651,-99999.0,'11111222,11111222,99999999' 
TABS,ioos:station:wmo:42043:1,1995-09-03T10:30:00Z,28.9818,-94.9186,2.0,84.99862955,29.02049276,-99999.0,'11111222,11111222,99999999' 
TABS,ioos:station:wmo:42043:1,1995-09-03T11:00:00Z,28.9818,-94.9186,2.0,83.44407151,26.10067624,-99999.0,'11111222,11111222,99999999' 
TABS,ioos:station:wmo:42043:1,1995-09-03T11:30:00Z,28.9818,-94.9186,2.0,88.7395731,27.27659986,-99999.0,'11111222,11111222,99999999' 
TABS,ioos:station:wmo:42043:1,1995-09-03T12:00:00Z,28.9818,-94.9186,2.0,93.43745387,29.85371166,-99999.0,'11111222,11111222,99999999' 
TABS,ioos:station:wmo:42043:1,1995-09-03T12:30:00Z,28.9818,-94.9186,2.0,92.53639688,30.27966479,-99999.0,'11111222,11111222,99999999' 
TABS,ioos:station:wmo:42043:1,1995-09-03T13:00:00Z,28.9818,-94.9186,2.0,91.24671605,27.57652806,-99999.0,'11111222,11111222,99999999' 
TABS,ioos:station:wmo:42043:1,1995-09-03T13:30:00Z,28.9818,-94.9186,2.0,96.74942457,25.35572519,-99999.0,'11111222,11111222,99999999' 
TABS,ioos:station:wmo:42043:1,1995-09-03T14:00:00Z,28.9818,-94.9186,2.0,106.3758958,23.76404848,-99999.0,'11111222,11111222,99999999' 
TABS,ioos:station:wmo:42043:1,1995-09-03T14:30:00Z,28.9818,-94.9186,2.0,117.5845497,26.38978022,-99999.0,'11111222,11111222,99999999' 
TABS,ioos:station:wmo:42043:1,1995-09-03T15:00:00Z,28.9818,-94.9186,2.0,134.9998948,24.64974239,-99999.0,'11111222,11111222,99999999' 
TABS,ioos:station:wmo:42043:1,1995-09-03T15:30:00Z,28.9818,-94.9186,2.0,137.9134799,24.90113451,-99999.0,'11111222,11111222,99999999' 
TABS,ioos:station:wmo:42043:1,1995-09-03T16:00:00Z,28.9818,-94.9186,2.0,145.9515211,26.61226221,-99999.0,'11111222,11111222,99999999' 
TABS,ioos:station:wmo:42043:1,1995-09-03T16:30:00Z,28.9818,-94.9186,2.0,153.8847303,25.05815037,-99999.0,'11111222,11111222,99999999' 
TABS,ioos:station:wmo:42043:1,1995-09-03T17:00:00Z,28.9818,-94.9186,2.0,158.6609089,24.15603651,-99999.0,'11111222,11111222,99999999' 
TABS,ioos:station:wmo:42043:1,1995-09-03T17:30:00Z,28.9818,-94.9186,2.0,164.2508938,25.23740478,-99999.0,'11111222,11111222,99999999' 
TABS,ioos:station:wmo:42043:1,1995-09-03T18:00:00Z,28.9818,-94.9186,2.0,171.4444688,23.05655872,-99999.0,'11111222,11111222,99999999' 
TABS,ioos:station:wmo:42043:1,1995-09-03T18:30:00Z,28.9818,-94.9186,2.0,181.6961046,20.26888255,-99999.0,'11111222,11111222,99999999' 
TABS,ioos:station:wmo:42043:1,1995-09-03T19:00:00Z,28.9818,-94.9186,2.0,189.0209813,19.00508616,-99999.0,'11111222,11111222,99999999' 
TABS,ioos:station:wmo:42043:1,1995-09-03T19:30:00Z,28.9818,-94.9186,2.0,195.4238556,19.62688972,-99999.0,'11111222,11111222,99999999' 
TABS,ioos:station:wmo:42043:1,1995-09-03T20:00:00Z,28.9818,-94.9186,2.0,203.2512153,18.49189282,-99999.0,'11111222,11111222,99999999' 
TABS,ioos:station:wmo:42043:1,1995-09-03T20:30:00Z,28.9818,-94.9186,2.0,211.368553,14.31191462,-99999.0,'11111222,11111222,99999999' 
TABS,ioos:station:wmo:42043:1,1995-09-03T21:00:00Z,28.9818,-94.9186,2.0,218.7669606,11.65839183,-99999.0,'11111222,11111222,99999999' 
TABS,ioos:station:wmo:42043:1,1995-09-03T21:30:00Z,28.9818,-94.9186,2.0,232.2806654,9.987096675,-99999.0,'11133222,11111222,99999999' 
TABS,ioos:station:wmo:42043:1,1995-09-03T22:00:00Z,28.9818,-94.9186,2.0,251.2215898,7.393537719,-99999.0,'11133222,11111222,99999999' 
TABS,ioos:station:wmo:42043:1,1995-09-03T22:30:00Z,28.9818,-94.9186,2.0,267.2558805,6.267184376,-99999.0,'11133222,11111222,99999999' 
TABS,ioos:station:wmo:42043:1,1995-09-03T23:00:00Z,28.9818,-94.9186,2.0,291.5482605,12.1705916,-99999.0,'11111222,11111222,99999999' 
TABS,ioos:station:wmo:42043:1,1995-09-03T23:30:00Z,28.9818,-94.9186,2.0,305.08094,11.65768416,-99999.0,'11111222,11111222,99999999' 
TABS,ioos:station:wmo:42043:1,1995-09-04T00:00:00Z,28.9818,-94.9186,2.0,309.8680884,15.33498614,-99999.0,'11111222,11111222,99999999' 
TABS,ioos:station:wmo:42043:1,1995-09-04T00:30:00Z,28.9818,-94.9186,2.0,317.3435199,15.39244295,-99999.0,'11111222,11111222,99999999' 
TABS,ioos:station:wmo:42043:1,1995-09-04T01:00:00Z,28.9818,-94.9186,2.0,318.8998895,20.17095932,-99999.0,'11111222,11111222,99999999' 
TABS,ioos:station:wmo:42043:1,1995-09-04T01:30:00Z,28.9818,-94.9186,2.0,320.9664109,22.24586478,-99999.0,'11111222,11111222,99999999' 
TABS,ioos:station:wmo:42043:1,1995-09-04T02:00:00Z,28.9818,-94.9186,2.0,328.1086318,25.09867925,-99999.0,'11111222,11111222,99999999' 
TABS,ioos:station:wmo:42043:1,1995-09-04T02:30:00Z,28.9818,-94.9186,2.0,332.3171398,24.06467328,-99999.0,'11111222,11111222,99999999' 
TABS,ioos:station:wmo:42043:1,1995-09-04T03:00:00Z,28.9818,-94.9186,2.0,339.1205594,24.24194918,-99999.0,'11111222,11111222,99999999' 
TABS,ioos:station:wmo:42043:1,1995-09-04T03:30:00Z,28.9818,-94.9186,2.0,345.6252102,24.61052011,-99999.0,'11111222,11111222,99999999' 
TABS,ioos:station:wmo:42043:1,1995-09-04T04:00:00Z,28.9818,-94.9186,2.0,350.8363831,24.30014403,-99999.0,'11111222,11111222,99999999' 
TABS,ioos:station:wmo:42043:1,1995-09-04T04:30:00Z,28.9818,-94.9186,2.0,351.7603723,22.88626007,-99999.0,'11111222,11111222,99999999' 
TABS,ioos:station:wmo:42043:1,1995-09-04T05:00:00Z,28.9818,-94.9186,2.0,344.2607816,30.19204697,-99999.0,'11111222,11111222,99999999' 
TABS,ioos:station:wmo:42043:1,1995-09-04T05:30:00Z,28.9818,-94.9186,2.0,346.5478412,28.80017535,-99999.0,'11111222,11111222,99999999' 
TABS,ioos:station:wmo:42043:1,1995-09-04T06:00:00Z,28.9818,-94.9186,2.0,348.8649097,27.02885125,-99999.0,'11111222,11111222,99999999' 
TABS,ioos:station:wmo:42043:1,1995-09-04T06:30:00Z,28.9818,-94.9186,2.0,348.5453992,23.26337035,-99999.0,'11111222,11111222,99999999' 
TABS,ioos:station:wmo:42043:1,1995-09-04T07:00:00Z,28.9818,-94.9186,2.0,350.1995466,24.49752028,-99999.0,'11111222,11111222,99999999' 
TABS,ioos:station:wmo:42043:1,1995-09-04T07:30:00Z,28.9818,-94.9186,2.0,351.6977963,26.80088245,-99999.0,'11111222,11111222,99999999' 
TABS,ioos:station:wmo:42043:1,1995-09-04T08:00:00Z,28.9818,-94.9186,2.0,352.3157606,27.81983645,-99999.0,'11111222,11111222,99999999' 
TABS,ioos:station:wmo:42043:1,1995-09-04T08:30:00Z,28.9818,-94.9186,2.0,359.348411,26.37170643,-99999.0,'11111222,11144222,99999999' 
TABS,ioos:station:wmo:42043:1,1995-09-04T09:00:00Z,28.9818,-94.9186,2.0,10.08929657,22.09161379,-99999.0,'11111222,11111222,99999999' 
TABS,ioos:station:wmo:42043:1,1995-09-04T09:30:00Z,28.9818,-94.9186,2.0,9.813964155,23.58512243,-99999.0,'11111222,11111222,99999999' 
TABS,ioos:station:wmo:42043:1,1995-09-04T10:00:00Z,28.9818,-94.9186,2.0,12.04766129,22.85334549,-99999.0,'11111222,11111222,99999999' 
TABS,ioos:station:wmo:42043:1,1995-09-04T10:30:00Z,28.9818,-94.9186,2.0,12.83195949,22.15324807,-99999.0,'11111222,11111222,99999999' 
TABS,ioos:station:wmo:42043:1,1995-09-04T11:00:00Z,28.9818,-94.9186,2.0,18.19770464,22.89508681,-99999.0,'11111222,11111222,99999999' 
TABS,ioos:station:wmo:42043:1,1995-09-04T11:30:00Z,28.9818,-94.9186,2.0,27.6884996,20.53104966,-99999.0,'11111222,11111222,99999999' 
TABS,ioos:station:wmo:42043:1,1995-09-04T12:00:00Z,28.9818,-94.9186,2.0,33.12240946,20.99088612,-99999.0,'11111222,11111222,99999999' 
TABS,ioos:station:wmo:42043:1,1995-09-04T12:30:00Z,28.9818,-94.9186,2.0,31.92834764,22.82283506,-99999.0,'11111222,11111222,99999999' 
TABS,ioos:station:wmo:42043:1,1995-09-04T13:00:00Z,28.9818,-94.9186,2.0,32.08539667,23.57013577,-99999.0,'11111222,11111222,99999999' 
TABS,ioos:station:wmo:42043:1,1995-09-04T13:30:00Z,28.9818,-94.9186,2.0,44.65481625,17.60020739,-99999.0,'11111222,11111222,99999999' 
TABS,ioos:station:wmo:42043:1,1995-09-04T14:00:00Z,28.9818,-94.9186,2.0,66.51143274,16.08261795,-99999.0,'11111222,11111222,99999999' 
TABS,ioos:station:wmo:42043:1,1995-09-04T14:30:00Z,28.9818,-94.9186,2.0,71.38784614,16.35537832,-99999.0,'11111222,11111222,99999999' 
TABS,ioos:station:wmo:42043:1,1995-09-04T15:00:00Z,28.9818,-94.9186,2.0,78.25150357,15.37203305,-99999.0,'11111222,11111222,99999999' 
TABS,ioos:station:wmo:42043:1,1995-09-04T15:30:00Z,28.9818,-94.9186,2.0,87.86486293,12.07838565,-99999.0,'11111222,11111222,99999999' 
TABS,ioos:station:wmo:42043:1,1995-09-04T16:00:00Z,28.9818,-94.9186,2.0,99.7542251,9.679938016,-99999.0,'11133222,11111222,99999999' 